[[{"header":{"parameterUnit":"m.s-1","parameterCategory":1,"la1":30.2991,"la2":30.254,"lo1":-89.0895,"lo2":-89.0444,"dy":0.0017,"dx":0.0017,"nx":28,"ny":28,"refTime":"2024-04-16T03:00:00:Z","depth":0,"parameterNumber":2,"parameterNumberName":"U-component_of_WINDS"},"data":[0,0,0,0,0,0,0,0,0,0,0,0,0,0,0,0,0,0,0,0,0,0,0,0,0,0,0,0,0,0,0,0,0,0,0,0,0,0,0,0,0,0,0,0,0,0,0,0,0,0,0,0,0,0,0,0,0,0,-1.9486,-1.9485,0,-1.9445,-1.9444,-1.9444,-1.9401,-1.9401,-1.94,-1.9399,-1.9357,-1.9357,-1.9356,0,0,0,0,0,0,0,0,0,0,0,0,0,-1.9526,-1.9526,-1.9486,-1.9485,-1.9485,-1.9445,-1.9444,-1.9444,-1.9401,-1.9401,-1.94,-1.9399,-1.9357,-1.9357,-1.9356,0,0,0,0,0,0,0,0,0,0,0,0,0,-1.9499,-1.9525,-1.9486,-1.9459,-1.9456,-1.9445,-1.9444,-1.9444,-1.9401,-1.9401,-1.94,-1.9399,-1.9358,-1.9357,-1.9356,-1.9369,0,0,-1.9353,-1.9353,0,0,0,0,0,0,0,0,-1.9501,-1.9498,-1.9463,-1.946,-1.9457,-1.9427,-1.9443,-1.9418,-1.9402,-1.9422,-1.9399,-1.9398,-1.9381,-1.9378,-1.9373,-1.9367,-1.9365,-1.9353,-1.9353,-1.9353,-1.9352,0,0,0,0,0,0,0,-1.9503,-1.9499,-1.9469,-1.9463,-1.9459,-1.9448,-1.9444,-1.9438,-1.9407,-1.942,-1.9417,-1.9413,-1.9379,-1.9374,-1.9371,-1.9364,-1.9353,-1.9353,-1.9352,-1.9352,-1.9366,-1.9367,0,0,0,0,0,0,-1.9509,-1.9501,-1.9471,-1.9468,-1.9477,-1.9448,-1.9443,-1.9438,-1.9407,-1.9402,-1.9414,-1.9411,-1.9376,-1.9372,-1.937,-1.9382,-1.9353,-1.9352,-1.9351,-1.9365,-1.9367,-1.9367,0,0,0,0,0,0,-1.951,-1.9507,-1.9472,-1.9484,-1.9479,-1.9449,-1.9443,-1.9437,-1.9431,-1.9402,-1.9396,-1.9413,-1.9375,-1.9371,-1.9369,-1.938,-1.9351,-1.9351,-1.9364,-1.9366,-1.9367,-1.9408,0,0,0,0,0,0,-1.9511,-1.9507,-1.9512,-1.9484,-1.9478,-1.9473,-1.9444,-1.9437,-1.943,-1.9426,-1.94,-1.9395,-1.9374,-1.9371,-1.9368,-1.9378,-1.935,-1.9363,-1.9365,-1.9367,-1.9405,-1.941,-1.9414,0,0,0,0,0,-1.9513,-1.9525,-1.9512,-1.9509,-1.9483,-1.9473,-1.947,-1.9445,-1.9431,-1.9435,-1.9417,-1.9396,-1.938,-1.9371,-1.9368,-1.9378,-1.9362,-1.9364,-1.9366,-1.9403,-1.9409,-1.9414,0,0,0,0,0,0,-1.9554,-1.9521,-1.9506,-1.951,-1.9495,-1.9466,-1.9471,-1.9453,-1.9441,-1.9438,-1.9408,-1.9402,-1.9404,-1.9391,-1.9382,-1.9388,-1.9368,-1.937,-1.9397,-1.9402,-1.9407,-1.941,-1.9349,0,0,0,0,0,-1.9564,-1.9559,-1.953,-1.9535,-1.9529,-1.9501,-1.9496,-1.9478,-1.9461,-1.9455,-1.9436,-1.942,-1.9411,-1.9406,-1.9397,-1.9403,-1.9397,-1.9409,-1.9413,-1.9417,-1.9419,-1.9421,-1.9426,-1.9374,-1.9374,-1.9374,0,0,-1.9583,-1.9565,-1.9563,-1.9543,-1.953,-1.9525,-1.9496,-1.9492,-1.9488,-1.9454,-1.9451,-1.9437,-1.9417,-1.942,-1.942,-1.9409,-1.9432,-1.942,-1.9423,-1.9423,-1.9424,-1.9429,-1.9433,-1.9375,-1.9375,-1.9375,0,0,-1.9617,-1.9602,-1.9605,-1.9592,-1.9572,-1.9553,-1.9554,-1.9528,-1.9517,-1.9514,-1.9488,-1.9483,-1.9469,-1.9456,-1.9448,-1.9476,-1.9457,-1.9474,-1.9498,-1.9501,-1.9505,-1.9508,-1.9518,-1.9522,-1.9476,-1.9476,-1.9476,0,-1.9644,-1.9636,-1.9609,-1.9607,-1.9599,-1.9568,-1.957,-1.9559,-1.9537,-1.9532,-1.952,-1.9501,-1.9486,-1.9485,-1.9492,-1.9486,-1.9486,-1.9477,-1.9506,-1.951,-1.9513,-1.9522,-1.9525,-1.9478,-1.9478,-1.9478,-1.9477,0,-1.967,-1.9664,-1.9669,-1.9648,-1.9641,-1.9641,-1.9615,-1.961,-1.9593,-1.9576,-1.9573,-1.9554,-1.954,-1.9538,-1.9522,-1.9535,-1.9529,-1.9512,-1.9491,-1.952,-1.9528,-1.9531,-1.9481,-1.948,-1.948,-1.9479,0,0,-1.9728,-1.9692,-1.9695,-1.9685,-1.966,-1.9655,-1.9654,-1.964,-1.9637,-1.9623,-1.9621,-1.9609,-1.9594,-1.9584,-1.9566,-1.9568,-1.9592,-1.9551,-1.955,-1.9559,-1.9605,-1.9618,-1.9622,-1.9579,-1.958,-1.958,-1.9607,0,-1.9757,-1.9753,-1.9729,-1.9732,-1.9726,-1.9697,-1.9696,-1.968,-1.9665,-1.9658,-1.964,-1.9632,-1.9613,-1.9607,-1.9608,-1.9589,-1.9601,-1.9587,-1.9577,-1.9577,-1.9582,-1.9626,-1.9639,-1.9665,-1.961,-1.961,-1.9611,0,-1.979,-1.9777,-1.978,-1.9755,-1.9752,-1.9751,-1.9736,-1.973,-1.9712,-1.97,-1.969,-1.9669,-1.9666,-1.9647,-1.9642,-1.9633,-1.9628,-1.9618,-1.9619,-1.9617,-1.9595,-1.9625,-1.9673,-1.9677,-1.9615,-1.9615,-1.9615,0,-1.9832,-1.9816,-1.9815,-1.9807,-1.9778,-1.9779,-1.9766,-1.9748,-1.9741,-1.9728,-1.9723,-1.971,-1.9703,-1.9694,-1.967,-1.9658,-1.9668,-1.9647,-1.9658,-1.9659,-1.9661,-1.9661,-1.9709,-1.9658,-1.9658,-1.9658,-1.9658,0,-1.9866,-1.9869,-1.9833,-1.9833,-1.9835,-1.9807,-1.981,-1.9795,-1.9779,-1.9775,-1.9748,-1.9745,-1.9714,-1.9708,-1.9689,-1.9688,-1.9685,-1.9675,-1.967,-1.9678,-1.9679,-1.9673,-1.9671,-1.9659,-1.9659,-1.9659,-1.9659,0,-1.9914,-1.989,-1.9887,-1.986,-1.9853,-1.9855,-1.9832,-1.983,-1.9813,-1.9808,-1.9805,-1.9778,-1.9769,-1.9744,-1.9729,-1.9716,-1.972,-1.9711,-1.9727,-1.9723,-1.9736,-1.9735,-1.9781,-1.9786,-1.9733,-1.9734,-1.9734,0,-1.9937,-1.9938,-1.9911,-1.9906,-1.9895,-1.9888,-1.9881,-1.9854,-1.9848,-1.9827,-1.9828,-1.9817,-1.9806,-1.9793,-1.9772,-1.976,-1.975,-1.9767,-1.9748,-1.9755,-1.975,-1.975,-1.975,-1.9771,-1.9772,-1.9772,-1.9773,0,-1.9982,-1.997,-1.996,-1.9947,-1.9939,-1.9927,-1.9914,-1.9911,-1.9881,-1.9875,-1.9865,-1.9857,-1.9841,-1.983,-1.9815,-1.9802,-1.9783,-1.9779,-1.9781,-1.9788,-1.9797,-1.9792,-1.9738,-1.9778,-1.9778,-1.9777,-1.9777,-1.9777,-2.0017,-2.0017,-1.9998,-1.9988,-1.9975,-1.9963,-1.996,-1.9942,-1.9933,-1.9918,-1.9903,-1.9895,-1.9876,-1.9854,-1.9842,-1.9836,-1.9825,-1.9828,-1.9829,-1.983,-1.9833,-1.9798,-1.9833,-1.9833,-1.9832,-1.9832,-1.9832,0,-2.006,-2.0046,-2.0038,-2.002,-2.0012,-1.9994,-1.9978,-1.9973,-1.9966,-1.9951,-1.9941,-1.9929,-1.9919,-1.9896,-1.9884,-1.9883,-1.9873,-1.988,-1.988,-1.9877,-1.9843,-1.9843,-1.9888,-1.9888,-1.9888,-1.9888,-1.9888,-1.9888,-2.0082,-2.008,-2.0066,-2.0057,-2.0043,-2.0035,-2.0027,-2.0016,-2.0003,-1.9992,-1.9983,-1.9968,-1.995,-1.9936,-1.9925,-1.9919,-1.9915,-1.9925,-1.9916,-1.9885,-1.988,-1.9875,-1.9874,-1.9925,-1.9925,-1.995,-1.9951,-1.9951]},{"header":{"parameterUnit":"m.s-1","parameterCategory":1,"la1":30.2991,"la2":30.254,"lo1":-89.0895,"lo2":-89.0444,"dy":0.0017,"dx":0.0017,"nx":28,"ny":28,"refTime":"2024-04-16T03:00:00:Z","depth":0,"parameterNumber":3,"parameterNumberName":"V-component_of_WINDS"},"data":[0,0,0,0,0,0,0,0,0,0,0,0,0,0,0,0,0,0,0,0,0,0,0,0,0,0,0,0,0,0,0,0,0,0,0,0,0,0,0,0,0,0,0,0,0,0,0,0,0,0,0,0,0,0,0,0,0,0,4.2331,4.2332,0,4.2402,4.2403,4.2404,4.2384,4.2382,4.2381,4.238,4.2447,4.245,4.2454,0,0,0,0,0,0,0,0,0,0,0,0,0,4.2172,4.2175,4.2331,4.2332,4.2333,4.2402,4.2403,4.2404,4.2384,4.2382,4.2381,4.2379,4.2446,4.245,4.2454,0,0,0,0,0,0,0,0,0,0,0,0,0,4.2242,4.2176,4.2331,4.2331,4.2332,4.2402,4.2403,4.2404,4.2385,4.2382,4.238,4.2378,4.2445,4.245,4.2454,4.2526,0,0,4.2469,4.2471,0,0,0,0,0,0,0,0,4.2238,4.2248,4.233,4.2331,4.2332,4.2382,4.2372,4.2445,4.2385,4.2364,4.238,4.2377,4.2427,4.2433,4.2451,4.2529,4.2532,4.2469,4.2472,4.2474,4.2475,0,0,0,0,0,0,0,4.2233,4.2245,4.2359,4.2332,4.2333,4.2326,4.2334,4.2386,4.2407,4.2366,4.2365,4.2374,4.2427,4.2447,4.2452,4.2533,4.2469,4.2473,4.2476,4.2478,4.2674,4.2676,0,0,0,0,0,0,4.2228,4.2241,4.2357,4.2361,4.2279,4.2331,4.2339,4.2368,4.2406,4.241,4.2376,4.2373,4.244,4.2447,4.2455,4.2542,4.2474,4.2478,4.2481,4.2671,4.2674,4.2677,0,0,0,0,0,0,4.2225,4.2239,4.2354,4.2301,4.2315,4.2336,4.2369,4.2371,4.239,4.2413,4.2417,4.2392,4.2438,4.2448,4.2509,4.2544,4.248,4.2485,4.2668,4.2672,4.2675,4.2716,0,0,0,0,0,0,4.2221,4.2238,4.2267,4.2302,4.2318,4.2409,4.2371,4.2374,4.2399,4.2396,4.243,4.2433,4.2437,4.2502,4.2514,4.2549,4.2488,4.2665,4.267,4.2674,4.2711,4.272,4.2728,0,0,0,0,0,4.2215,4.2274,4.2268,4.2283,4.2355,4.2411,4.242,4.2425,4.2402,4.243,4.2445,4.2432,4.2538,4.2508,4.2521,4.2559,4.2663,4.2669,4.2674,4.2708,4.2718,4.2728,0,0,0,0,0,0,4.2241,4.2279,4.2273,4.2346,4.2375,4.2407,4.2444,4.2436,4.2472,4.2467,4.247,4.2478,4.254,4.2555,4.2522,4.263,4.2597,4.2605,4.2618,4.2629,4.2637,4.2632,4.2492,0,0,0,0,0,4.2256,4.23,4.233,4.2391,4.2406,4.2422,4.2447,4.2448,4.2479,4.2491,4.251,4.2538,4.2578,4.2604,4.2641,4.2713,4.272,4.2745,4.2753,4.276,4.2767,4.2805,4.2817,4.2694,4.2694,4.2694,0,0,4.2286,4.2312,4.2339,4.2397,4.242,4.2464,4.2433,4.2481,4.2513,4.2497,4.2557,4.2571,4.2603,4.267,4.27,4.2684,4.2802,4.2766,4.2771,4.2775,4.2812,4.2823,4.2834,4.2698,4.2697,4.2697,0,0,4.2363,4.2388,4.2442,4.2466,4.2502,4.2512,4.2525,4.2558,4.2568,4.2628,4.2617,4.2654,4.2722,4.2746,4.2766,4.2852,4.2841,4.2864,4.2907,4.2944,4.2954,4.2962,4.2993,4.3003,4.287,4.2871,4.2871,0,4.2396,4.2464,4.2469,4.2519,4.2544,4.2533,4.2587,4.2609,4.2655,4.2672,4.2654,4.2739,4.2759,4.2831,4.2852,4.2869,4.2883,4.286,4.2952,4.2961,4.2969,4.2998,4.3009,4.2873,4.2873,4.2873,4.2872,0,4.2502,4.2549,4.2587,4.2634,4.2663,4.2714,4.2726,4.2755,4.2753,4.2765,4.2825,4.2849,4.2892,4.2908,4.2907,4.298,4.2969,4.2951,4.2918,4.2983,4.301,4.3021,4.2877,4.2876,4.2875,4.2874,0,0,4.2599,4.2648,4.2662,4.2683,4.2722,4.2758,4.2807,4.285,4.2875,4.2906,4.2947,4.3005,4.2989,4.3012,4.3013,4.3046,4.3112,4.3024,4.3025,4.304,4.3193,4.3206,4.3219,4.3105,4.3107,4.3108,4.3191,0,4.268,4.277,4.2776,4.2857,4.29,4.2889,4.2932,4.296,4.2972,4.3008,4.302,4.3062,4.3037,4.3052,4.3084,4.3097,4.3143,4.3091,4.3142,4.3143,4.3135,4.3234,4.3248,4.3325,4.3201,4.3203,4.3204,0,4.2787,4.2824,4.2909,4.2942,4.296,4.2999,4.3039,4.3075,4.3105,4.3111,4.3137,4.3133,4.3182,4.3147,4.3214,4.3179,4.3199,4.3209,4.3212,4.3217,4.3178,4.3242,4.3349,4.3361,4.3221,4.322,4.3219,0,4.285,4.292,4.2981,4.2999,4.3038,4.3066,4.3083,4.3111,4.3137,4.317,4.3187,4.3225,4.3246,4.3275,4.328,4.3255,4.3348,4.3313,4.3353,4.3353,4.3374,4.3372,4.3486,4.3386,4.3386,4.3386,4.3386,0,4.294,4.2993,4.3009,4.3047,4.3105,4.311,4.3167,4.3182,4.3207,4.3245,4.3238,4.3273,4.3279,4.3315,4.3319,4.3374,4.3383,4.3389,4.3389,4.339,4.3389,4.3404,4.3399,4.3389,4.3388,4.3388,4.3387,0,4.302,4.3034,4.3099,4.3131,4.314,4.3182,4.3208,4.3243,4.3253,4.3302,4.3314,4.333,4.3373,4.3381,4.3431,4.3434,4.3499,4.3494,4.349,4.3489,4.3529,4.3525,4.3656,4.3674,4.3562,4.3563,4.3564,0,4.3078,4.3118,4.3155,4.3181,4.3201,4.3243,4.3269,4.3275,4.3302,4.3339,4.3369,4.3411,4.3445,4.3514,4.3529,4.3566,4.3562,4.3606,4.3568,4.3567,4.3563,4.3561,4.3565,4.3613,4.3614,4.3615,4.3616,0,4.3178,4.3182,4.3222,4.3263,4.3295,4.3328,4.3358,4.338,4.3389,4.342,4.3465,4.3491,4.3543,4.3584,4.3622,4.3637,4.3628,4.3628,4.3639,4.364,4.3636,4.3639,4.351,4.3625,4.3624,4.3623,4.3623,4.3622,4.3249,4.3284,4.3316,4.336,4.3384,4.3413,4.3447,4.3462,4.35,4.3544,4.3544,4.3593,4.362,4.367,4.3688,4.3725,4.3711,4.3727,4.3731,4.3736,4.374,4.363,4.3731,4.3731,4.3731,4.3731,4.3731,0,4.3349,4.3369,4.3409,4.3453,4.3487,4.3477,4.351,4.3539,4.3582,4.3609,4.3644,4.3694,4.3734,4.3752,4.3791,4.3817,4.3814,4.3827,4.3825,4.3829,4.375,4.3736,4.3829,4.3829,4.3829,4.3829,4.3829,4.3829,4.3405,4.3465,4.3473,4.3544,4.3563,4.3612,4.3632,4.3658,4.368,4.3737,4.3771,4.3783,4.3806,4.3847,4.3882,4.3887,4.3901,4.3917,4.3919,4.3844,4.3835,4.3825,4.3812,4.392,4.392,4.3995,4.3996,4.3996]}]]